User: anonymous   Login
Location: Tel Aviv
(32.0670°N, 34.7670°E)
Time: 20:12:34
(UTC+03:00)
Language:

CAS-4A - Orbit

View from above orbital plane
View from above orbital plane
View from above satellite
View from above satellite

Ground track
Ground track

The orbit data is extracted from the following two-line orbital elements,

1 42761U 17034D   24259.96012074  .00041266  00000-0  12476-2 0  9997
2 42761  43.0188  70.1756 0013252 256.7826 103.1550 15.33458871401321
Epoch (UTC): 15 September 2024 23:02:34
Eccentricity: 0.0013252
inclination: 43.0188°
perigee height: 456 km
apogee height: 474 km
right ascension of ascending node: 70.1756°
argument of perigee: 256.7826°
revolutions per day: 15.33458871
mean anomaly at epoch: 103.1550°
orbit number at epoch: 40132

The dashed part of the orbit path shows where the satellite is in the earth's shadow,  

DLR